Regional Weather Roundup
Issued by NWS Charleston, SC

Home | Current Version | Previous Version | Text Only | Print | Product List | Glossary On
Versions: 1 2 3 4 5 6 7 8 9 10 11 12 13 14 15 16 17 18 19 20 21 22 23 24 25 26 27 28 29 30 31 32 33 34 35 36 37 38 39 40 41 42 43 44 45 46 47 48 49 50
000
ASUS42 KCHS 231912
RWRCHS

Regional Weather Roundup
National Weather Service Charleston SC
300 PM EDT WED MAY 23 2018

NOTE: "fair" indicates few or no clouds below 12,000 feet with no
significant weather and/or obstructions to visibility.

Not all stations are quality controlled. Use data with caution,
especially dewpoint observations.

SCZ027-030-031-034>040-042>050-232000-
...Southeast South Carolina...

CITY           SKY/WX    TMP DP  RH WIND       PRES   REMARKS
N Charleston   PTSUNNY   85  72  65 SW13      30.06F HX  91
Waterfront Prk   N/A     80  71  74 S12       29.92F
Mount Pleasant FAIR      84  68  58 S12G20    30.07F
Johns Island   FAIR      84  66  54 S14G20    30.08F
Pinopolis        N/A     77  72  83 N10       30.01F
Moncks Corner  RAIN      73  72  94 N8        30.07F
Summerville    CLOUDY    79  70  73 N8        30.08S
Beaufort MCAS  FAIR      86  73  65 SE12      30.07F HX  93
Beaufort Arpt  FAIR      82  70  65 S14       30.07F
Hilton Head Is MOSUNNY   81  72  74 S10G20    30.09F
Walterboro     MOCLDY    86  68  54 S7        30.08S
Allendale      FAIR      79  73  83 SE3       30.07F

...Southern Midlands and Pee Dee...

CITY           SKY/WX    TMP DP  RH WIND       PRES   REMARKS
Georgetown     TSTM      72  72 100 W9        30.10S
Kingstree      LGT RAIN  72  70  94 CALM      30.07F
Orangeburg     FAIR      79  69  71 SW7       30.08F
Barnwell       FAIR      82  70  65 S7        30.07F
Aiken          LGT RAIN  79  70  73 SW3       30.11F
Manning        FAIR      72  66  83 CALM      30.08F
Columbia       PTSUNNY   85  71  63 S7        30.05F HX  90
Sumter         PTSUNNY   76  71  83 S8        30.05F
Florence       FAIR      82  69  64 SW13      30.05F
Myrtle Beach   RAIN      76  72  87 W3        30.09F
N Myrtle Beach FAIR      80  70  71 SW13      30.08S

$$

GAZ063-065-086>088-099>101-113>116-118-119-134>141-150-232000-
...Southeast Georgia...

CITY           SKY/WX    TMP DP  RH WIND       PRES   REMARKS
Savannah Arpt  PTSUNNY   88  69  53 S8        30.06F HX  92
Hunter AAF     FAIR      85  72  65 SE12      30.05F HX  90
Fort Stewart   PTSUNNY   84  68  57 S8        30.04F
Statesboro     FAIR      83  70  62 S3        30.06F
Sylvania       LGT RAIN  78  73  84 NW3       30.08F
Claxton        FAIR      86  70  59 S5        30.05F HX  91

...CSRA, Central and far Southeast Georgia...

CITY           SKY/WX    TMP DP  RH WIND       PRES   REMARKS
Thomson        CLOUDY    72  71  95 CALM      30.12F
Augusta-Bush   PTSUNNY   79  74  84 CALM      30.06F
Augusta-Daniel HVY RAIN  77  72  84 NW10G16   30.08S
Swainsboro     MOCLDY    84  70  61 SE9       30.07F
Vidalia        FAIR      86  68  54 SW5       30.06F
Eastman        FAIR      80  68  65 CALM      30.09F
Hazlehurst       N/A     87  66  50 S8        30.05F
Alma           FAIR      85  71  63 SW6       30.06F HX  90
Waycross       PTSUNNY   83  72  69 CALM      30.07F THUNDER
Jesup          LGT RAIN  81  72  74 CALM      30.07F
Baxley         PTSUNNY   82  70  65 SW6       30.06F
Brunswick      PTSUNNY   81  68  65 S7        30.09S
Saint Simons   FAIR      83  73  72 SE13G20   30.07F

$$

SCZ027-028-034-036>038-045-046-048>050-GAZ119-141-232000-
...Lake and Supplemental Coastal Observations...

STATION/POSITION TIME  TEMP    WIND        PRES    WAVE   SWELL
                       AIR SEA DIR/SP/G            HT/PER HT/PER/DIR
                 (UTC) (F)     (DEG/KT/KT) (MB)    (FT/S) (FT/S/D)
Winyah Bay       1745   80     200/  6     1019.0
Lake Murray      NOT AVBL
ACE Basin NERRS  NOT AVBL
Fort Pulaski     1842   81 78  170/  7/ 10 1019.0F
Sapelo Island    1800   85     160/ 12     1019.0

$$

ANZ835-935-AMZ111-154-330-350-352-354-370-450-454-472-232000-
...C-MAN and Buoy Observations...

STATION/POSITION TIME  TEMP    WIND        PRES    WAVE   SWELL
                       AIR SEA DIR/SP/G            HT/PER HT/PER/DIR
                 (UTC) (F)     (DEG/KT/KT) (MB)    (FT/S) (FT/S/D)
Buoy 41004       1850      76  220/  8/ 10 1019.2F   3/ 8   3/140/ 8
Buoy 41008       1850   76 77  170/ 12/ 16 1018.5F   3/ 7   2/130/ 7
Folly Beach CMAN 1900   79     190/ 14/ 16 1019.3F
Capers Nearshore 1808   77 77  220/ 16/ 19 1019.9F
Fripp Nearshore  1808   77 79  200/ 10/ 16 1018.9F


STATION/POSITION TIME  TEMP    WIND        PRES    WAVE   SWELL
                       AIR SEA DIR/SP/G            HT/PER HT/PER/DIR
                 (UTC) (F)     (DEG/KT/KT) (MB)    (FT/S) (FT/S/D)
5E St. Marys GA  1830      77                N/A     3/ 8
Frying Pan Buoy  1850   76 76  210/ 16/ 17 1018.9F   3/ 8   2/130/ 8
Buoy 41025       1900   76 74  230/ 17/ 19 1017.7
Cape Lookout NC  1800          220/ 16/ 21 1018.2F
Buoy 41002       1850      78  220/  8/ 12 1020.7F   3/ 8   3/140/ 8
Buoy 41010       1850   78 79  120/  6/ 10 1020.3F   4/ 7   3/120/ 7
St Augustine FL  1900   77 80  120/ 12/ 13 1019.2F


$$



USA.gov is the U.S. government's official web portal to all federal, state and local government web resources and services.